Weather History for Binghamton, NY

Change the Weather History Date:

Tuesday, October 29, 2013

  Actual Average Record
Temperature  
Mean Temperature 39 °F 44 °F  
Max Temperature 46 °F 52 °F 70 °F (1982)
Min Temperature 31 °F 37 °F 22 °F (1965)
Degree Days  
Heating Degree Days 26 21  
Month to date heating degree days 360 472  
Since 1 July heating degree days 652 729  
Cooling Degree Days 0 0  
Month to date cooling degree days 12 0  
Year to date cooling degree days 480 379  
Moisture  
Dew Point 23 °F    
Average Humidity 58    
Maximum Humidity 78    
Minimum Humidity 38    
Precipitation  
Precipitation 0.00 in 0.10 in 1.18 in (1973)
Month to date precipitation 2.21 3.12  
Year to date precipitation 35.41 32.96  
Snow  
Snow 0.00 in 0.00 in 0.70 in (2011)
Month to date snowfall T 0.8  
Since 1 July snowfall T 0.8  
Since 1 September snowfall T 0.8  
Snow Depth 0.00 in    
Sea Level Pressure  
Sea Level Pressure 30.40 in    
Wind  
Wind Speed 2 mph (NNE)    
Max Wind Speed 8 mph    
Max Gust Speed 12 mph    
Visibility 10 miles    
Events      
T = Trace of Precipitation, MM = Missing Value Source: NWS Daily Summary

Daily Weather History Graph

Daily Weather History Graph

Search for Another Location

Airport:

Trip Planner

Search our weather history database for the weather conditions in past years. The results will help you decide how hot, cold, wet, or windy it might be!

Date:

Astronomy

Oct. 29, 2013 Rise Set
Actual Time 7:33 AM EDT 6:01 PM EDT
Civil Twilight 7:04 AM EDT 6:30 PM EDT
Nautical Twilight 6:31 AM EDT 7:02 PM EDT
Astronomical Twilight 5:59 AM EDT 7:35 PM EDT
Moon 2:15 AM EDT (10/29) 3:18 PM EDT (10/29)
Length of Visible Light 11h 25m
Length of Day
10h 27m
Waning Crescent, 25% of the Moon is Illuminated
Oct 29
Waning Crescent
Nov 3
New
Nov 10
First Quarter
Nov 17
Full
Nov 25
Last Quarter

Hourly Weather History & Observations

Time (EDT) Temp. Windchill Dew Point Humidity Pressure Visibility Wind Dir Wind Speed Gust Speed Precip Events Conditions
12:53 AM 34.0 °F 29.8 °F 26.1 °F 73% 30.36 in 10.0 mi North 4.6 mph - N/A   Overcast
1:53 AM 34.0 °F - 25.0 °F 70% 30.37 in 10.0 mi Calm Calm - N/A   Overcast
2:53 AM 34.0 °F 31.0 °F 26.1 °F 73% 30.38 in 10.0 mi North 3.5 mph - N/A   Overcast
3:53 AM 33.1 °F 30.0 °F 25.0 °F 72% 30.39 in 10.0 mi NW 3.5 mph - N/A   Overcast
4:53 AM 33.1 °F 30.0 °F 26.1 °F 75% 30.39 in 10.0 mi North 3.5 mph - N/A   Overcast
5:53 AM 33.1 °F - 25.0 °F 72% 30.40 in 10.0 mi Calm Calm - N/A   Overcast
6:53 AM 32.0 °F - 25.0 °F 75% 30.42 in 10.0 mi Calm Calm - N/A   Overcast
7:53 AM 30.9 °F - 24.1 °F 76% 30.43 in 10.0 mi Calm Calm - N/A   Overcast
8:53 AM 33.1 °F 28.7 °F 24.1 °F 70% 30.45 in 10.0 mi NE 4.6 mph - N/A   Mostly Cloudy
9:53 AM 36.0 °F 31.1 °F 21.9 °F 57% 30.45 in 10.0 mi NE 5.8 mph - N/A   Mostly Cloudy
10:53 AM 37.9 °F 35.5 °F 19.0 °F 47% 30.45 in 10.0 mi East 3.5 mph - N/A   Scattered Clouds
11:53 AM 39.9 °F 34.5 °F 19.9 °F 45% 30.45 in 10.0 mi NW 8.1 mph - N/A   Overcast
12:53 PM 41.0 °F 39.0 °F 18.0 °F 40% 30.43 in 10.0 mi Variable 3.5 mph - N/A   Partly Cloudy
1:53 PM 43.0 °F 40.3 °F 21.0 °F 42% 30.41 in 10.0 mi North 4.6 mph - N/A   Mostly Cloudy
2:53 PM 42.1 °F - 21.0 °F 43% 30.39 in 10.0 mi Calm Calm - N/A   Mostly Cloudy
3:53 PM 44.1 °F - 21.9 °F 42% 30.38 in 10.0 mi Calm Calm - N/A   Clear
4:53 PM 44.1 °F - 21.9 °F 42% 30.37 in 10.0 mi Calm Calm - N/A   Clear
5:53 PM 41.0 °F - 23.0 °F 49% 30.37 in 10.0 mi Calm Calm - N/A   Clear
6:53 PM 41.0 °F - 21.9 °F 47% 30.39 in 10.0 mi Calm Calm - N/A   Clear
7:53 PM 39.0 °F 36.8 °F 23.0 °F 53% 30.38 in 10.0 mi SE 3.5 mph - N/A   Clear
8:53 PM 39.0 °F - 21.9 °F 50% 30.37 in 10.0 mi Calm Calm - N/A   Clear
9:53 PM 39.0 °F - 21.9 °F 50% 30.37 in 10.0 mi Calm Calm - N/A   Clear
10:53 PM 37.9 °F 34.4 °F 23.0 °F 55% 30.35 in 10.0 mi SSE 4.6 mph - N/A   Scattered Clouds
11:53 PM 37.0 °F 34.5 °F 23.0 °F 57% 30.32 in 10.0 mi South 3.5 mph - N/A   Mostly Cloudy